Home > Weather > San Antonio > Past weeks

Flag for USA Past Weather in San Antonio, Texas, USA — Yesterday and Last 2 Weeks

Now
76 °F

Passing clouds.


Feels Like: 76 °F
Forecast: 73 / 88 °F
Wind: No wind

Location: San Antonio International Airport

Current Time: Aug 27, 2016 at 3:24:09 AM

Latest Report: Aug 27, 2016 at 2:51 AM


Visibility: 10 mi

Pressure: 29.96 "Hg

Humidity: 85%

Dew Point: 71 °F

Location of San AntonioLocation

Past Weather in San Antonio — Graph

°F

San Antonio Temperature Yesterday

Maximum temperature yesterday: 90 °F (at 4:51 PM)
Minimum temperature yesterday: 77 °F (at 1:51 AM)
Average temperature yesterday: 82 °F

High & Low Weather Summary for the Past Weeks

 TemperatureHumidityPressure
High101 °F (Aug 12, 4:51 PM)97% (Aug 15, 5:51 AM)30.15 "Hg (Aug 15, 5:51 AM)
Low71 °F (Aug 15, 8:51 AM)34% (Aug 12, 6:51 PM)29.68 "Hg (Aug 12, 5:51 PM)
Average80 °F78%29.94 "Hg
* Reported Aug 12 1:51 AM — Aug 27 1:51 AM, San Antonio, Weather by CustomWeather, © 2016

Note: Actual official high and low records may vary slightly from our data, if they occured in-between our weather recording intervals... More about our weather records

Advertising

San Antonio Weather History for the Previous 24 Hours

Scroll right to see more
 ConditionsComfort  
Time TempWeatherWind HumidityBarometerVisibility
1:51 AM
Sat, Aug 27
77 °FMostly cloudy.3 mph85%29.96 "Hg10 mi
12:51 AM77 °FPassing clouds.3 mph85%29.96 "Hg10 mi
11:51 PM
Fri, Aug 26
77 °FPassing clouds.7 mph85%29.96 "Hg10 mi
10:51 PM78 °FPassing clouds.5 mph82%29.98 "Hg10 mi
9:51 PM79 °FPassing clouds.10 mph79%29.96 "Hg10 mi
8:51 PM81 °FPartly sunny.13 mph74%29.95 "Hg10 mi
7:51 PM84 °FBroken clouds.18 mph70%29.91 "Hg10 mi
6:51 PM88 °FPartly sunny.8 mph55%29.89 "Hg10 mi
5:51 PM90 °FScattered clouds.10 mph50%29.89 "Hg10 mi
4:51 PM90 °FBroken clouds.6 mph50%29.89 "Hg10 mi
3:51 PM88 °FPartly sunny.3 mph54%29.90 "Hg10 mi
2:51 PM88 °FPartly sunny.8 mph54%29.92 "Hg10 mi
1:51 PM88 °FPartly sunny.3 mph57%29.95 "Hg10 mi
12:51 PM88 °FBroken clouds.7 mph54%29.98 "Hg10 mi
11:51 AM85 °FBroken clouds.No wind63%30.00 "Hg10 mi
10:51 AM84 °FBroken clouds.3 mph65%30.01 "Hg10 mi
9:51 AM81 °FBroken clouds.6 mph74%30.01 "Hg10 mi
8:51 AM79 °FPartly sunny.6 mph82%30.00 "Hg10 mi
7:51 AM78 °FPassing clouds.No wind87%29.99 "Hg10 mi
6:51 AM77 °FPassing clouds.6 mph90%29.98 "Hg10 mi
5:51 AM77 °FPassing clouds.6 mph90%29.97 "Hg10 mi
4:51 AM77 °FPassing clouds.5 mph90%29.97 "Hg10 mi
3:51 AM77 °FPassing clouds.7 mph90%29.98 "Hg10 mi
Weather by CustomWeather, © 2016

See weather overviewHow to use our weather pages